Flag for Denmark Weather past 2 weeks in Vejle, Denmark

Now
45 °F

Partly sunny.


Feels Like: 41 °F
Forecast: 47 / 56 °F
Wind: 7 mph from Southwest

Location: Billund Lufthavn

Current Time: May 26, 2015 at 6:51:01 AM

Latest Report: May 26, 2015 at 6:20 AM


Visibility: N/A

Pressure: 29.92 "Hg

Humidity: 93%

Dew point: 43 °F

Location of VejleLocation

Historic Weather in Vejle — Graph

°F

Vejle temperature yesterday

Maximum temperature yesterday: 57 °F (at 1:20 PM)
Minimum temperature yesterday: 45 °F (at 11:50 PM)
Average temperature yesterday: 50 °F

Past Weeks' High & Low Weather Summary

 TemperatureHumidityPressure
High68 °F (May 11, 3:20 PM)100% (May 12, 4:50 AM)30.24 "Hg (May 12, 4:50 AM)
Low37 °F (May 15, 4:20 AM)49% (May 11, 12:50 PM)29.45 "Hg (May 19, 12:20 AM)
Average49 °F79%29.95 "Hg
* Reported May 11 5:20 AM — May 26 5:20 AM, Vejle, Weather by CustomWeather, © 2015

Note: Actual official high and low records may vary slightly from our data, if they occured in-between our weather recording intervals... More about our weather records

Advertising

Vejle weather history for previous 24 hours

 ConditionsComfort  
Time TempWeatherWind HumidityBarometerVisibility
5:20 AM
Tue, May 26
45 °FPassing clouds.6 mph87%29.92 "HgN/A
4:50 AM43 °FSprinkles. Passing clouds.7 mph93%29.92 "HgN/A
4:20 AM45 °FPassing clouds.7 mph87%29.92 "HgN/A
3:50 AM45 °FPassing clouds.6 mph93%29.92 "HgN/A
3:20 AM43 °FPassing clouds.5 mph93%29.92 "HgN/A
2:50 AM43 °FPassing clouds.3 mph100%29.92 "HgN/A
2:20 AM43 °FPassing clouds.2 mph93%29.92 "HgN/A
1:50 AM45 °FPassing clouds.2 mph87%29.92 "HgN/A
1:20 AM45 °FPassing clouds.2 mph87%29.92 "HgN/A
12:50 AM45 °FPassing clouds.2 mph87%29.92 "HgN/A
12:20 AM43 °FPassing clouds.3 mph87%29.92 "HgN/A
11:50 PM
Mon, May 25
45 °FPassing clouds.6 mph87%29.92 "HgN/A
11:20 PM46 °FPassing clouds.7 mph82%29.92 "HgN/A
10:20 PM48 °FPartly sunny.9 mph76%29.92 "HgN/A
9:50 PM48 °FScattered showers. Partly sunny.9 mph76%29.92 "HgN/A
9:20 PM48 °FPartly sunny.7 mph76%29.92 "HgN/A
8:50 PM48 °FBroken clouds.10 mph82%29.92 "HgN/A
8:20 PM50 °FScattered showers. Broken clouds.10 mph76%29.92 "HgN/A
7:50 PM50 °FScattered showers. Broken clouds.9 mph71%29.89 "HgN/A
7:20 PM50 °FScattered showers. Broken clouds.7 mph82%29.92 "HgN/A
6:50 PM52 °FBroken clouds.13 mph72%29.89 "HgN/A
6:20 PM52 °FPartly sunny.14 mph72%29.89 "HgN/A
5:50 PM54 °FPartly sunny.13 mph63%29.89 "HgN/A
5:20 PM54 °FPartly sunny.15 mph63%29.89 "HgN/A
4:50 PM54 °FPartly sunny.15 mph63%29.89 "HgN/A
4:20 PM55 °FPartly sunny.14 mph55%29.89 "HgN/A
3:50 PM54 °FPartly sunny.16 mph58%29.89 "HgN/A
3:20 PM54 °FScattered clouds.14 mph58%29.89 "HgN/A
2:50 PM55 °FPartly sunny.15 mph55%29.89 "HgN/A
2:20 PM54 °FPartly sunny.12 mph63%29.89 "HgN/A
1:50 PM55 °FPartly sunny.12 mph55%29.89 "HgN/A
1:20 PM57 °FBroken clouds.12 mph55%29.92 "HgN/A
12:50 PM55 °FBroken clouds.13 mph59%29.92 "HgN/A
12:20 PM55 °FPassing clouds.10 mph63%29.92 "HgN/A
11:50 AM54 °FPassing clouds.10 mph63%29.92 "HgN/A
11:20 AM54 °FScattered clouds.12 mph63%29.92 "HgN/A
10:50 AM52 °FPassing clouds.12 mph72%29.92 "HgN/A
10:20 AM50 °FScattered clouds.10 mph71%29.92 "HgN/A
9:50 AM50 °FPassing clouds.12 mph76%29.92 "HgN/A
9:20 AM48 °FScattered clouds.9 mph76%29.92 "HgN/A
8:50 AM48 °FScattered clouds.9 mph82%29.92 "HgN/A
8:20 AM48 °FScattered clouds.8 mph82%29.92 "HgN/A
7:50 AM48 °FScattered clouds.9 mph82%29.92 "HgN/A
7:20 AM46 °FPassing clouds.8 mph93%29.92 "HgN/A
6:50 AM46 °FPartly sunny.8 mph93%29.92 "HgN/A
6:20 AM46 °FBroken clouds.7 mph93%29.92 "HgN/A
Weather by CustomWeather, © 2015

See weather overviewHow to use our weather pages